contact:dominique.lefevre@mio.osupytheas.fr, maurice.libes@osupytheas.fr, didier.mallarino@osupytheas.fr
Project:EMSO http://www.emso-fr.org/EMSO-France
Depth: 2436.0 m
Title:EMSO Ligure Ouest : Data MII capteur CSTAR
DateTime,Latitude,Longitude,Instrument_Serial,Reference_Counts,Signal_Counts,Corrected_Signal_raw_counts,Calculated_Beam_c_inverse_meters,Internal_thermistor_counts
DateTime,Latitude,Longitude,Instrument_Serial,Reference_Counts,Signal_Counts,Corrected_Signal_raw_counts,Calculated_Beam_c_inverse_meters,Internal_thermistor_counts
2019-08-13T00:02:25,42.805,6.029,CST-1368DR,8328,11656,15432,0.047,551
2019-08-13T00:05:27,42.805,6.029,CST-1368DR,8328,11655,15431,0.048,551
2019-08-13T00:08:28,42.805,6.029,CST-1368DR,8328,11656,15432,0.047,551
2019-08-13T00:11:30,42.805,6.029,CST-1368DR,8328,11656,15432,0.047,551
2019-08-13T00:14:32,42.805,6.029,CST-1368DR,8328,11655,15430,0.048,551
2019-08-13T00:17:33,42.805,6.029,CST-1368DR,8328,11657,15433,0.047,551
2019-08-13T00:20:35,42.805,6.029,CST-1368DR,8328,11652,15426,0.049,550
2019-08-13T00:23:37,42.805,6.029,CST-1368DR,8328,11654,15429,0.048,551
2019-08-13T00:26:38,42.805,6.029,CST-1368DR,8328,11655,15431,0.048,551
2019-08-13T00:29:40,42.805,6.029,CST-1368DR,8328,11652,15426,0.049,550
2019-08-13T00:32:41,42.805,6.029,CST-1368DR,8328,11655,15430,0.048,551
2019-08-13T00:35:43,42.805,6.029,CST-1368DR,8328,11652,15427,0.049,551
2019-08-13T00:38:45,42.805,6.029,CST-1368DR,8327,11655,15432,0.047,551
2019-08-13T00:41:46,42.805,6.029,CST-1368DR,8327,11655,15432,0.047,550
2019-08-13T00:44:48,42.805,6.029,CST-1368DR,8328,11654,15429,0.048,551
2019-08-13T00:47:50,42.805,6.029,CST-1368DR,8327,11649,15424,0.049,551
2019-08-13T00:50:51,42.805,6.029,CST-1368DR,8328,11654,15429,0.048,551
2019-08-13T00:53:53,42.805,6.029,CST-1368DR,8328,11654,15429,0.048,551
2019-08-13T00:56:55,42.805,6.029,CST-1368DR,8328,11655,15430,0.048,551
2019-08-13T00:59:56,42.805,6.029,CST-1368DR,8328,11652,15427,0.049,551
2019-08-13T01:02:58,42.805,6.029,CST-1368DR,8328,11651,15425,0.049,550
2019-08-13T01:06:00,42.805,6.029,CST-1368DR,8327,11653,15429,0.048,551
2019-08-13T01:09:01,42.805,6.029,CST-1368DR,8328,11653,15428,0.048,550
2019-08-13T01:12:03,42.805,6.029,CST-1368DR,8328,11654,15429,0.048,551
2019-08-13T01:15:04,42.805,6.029,CST-1368DR,8328,11651,15425,0.049,551
2019-08-13T01:18:06,42.805,6.029,CST-1368DR,8328,11654,15429,0.048,551
2019-08-13T01:21:08,42.805,6.029,CST-1368DR,8328,11653,15428,0.048,551
2019-08-13T01:24:09,42.805,6.029,CST-1368DR,8328,11653,15428,0.048,551
2019-08-13T01:27:11,42.805,6.029,CST-1368DR,8328,11652,15427,0.049,551
2019-08-13T01:30:13,42.805,6.029,CST-1368DR,8328,11654,15429,0.048,551
2019-08-13T01:33:14,42.805,6.029,CST-1368DR,8328,11654,15429,0.048,551
2019-08-13T01:36:16,42.805,6.029,CST-1368DR,8328,11655,15430,0.048,551
2019-08-13T01:39:18,42.805,6.029,CST-1368DR,8328,11655,15430,0.048,551
2019-08-13T01:42:19,42.805,6.029,CST-1368DR,8328,11654,15429,0.048,551
2019-08-13T01:45:21,42.805,6.029,CST-1368DR,8328,11652,15426,0.049,551
2019-08-13T01:48:23,42.805,6.029,CST-1368DR,8328,11654,15429,0.048,551
2019-08-13T01:51:24,42.805,6.029,CST-1368DR,8328,11654,15429,0.048,551
2019-08-13T01:54:26,42.805,6.029,CST-1368DR,8327,11642,15415,0.052,551
2019-08-13T01:57:28,42.805,6.029,CST-1368DR,8328,11653,15427,0.049,551
2019-08-13T02:00:29,42.805,6.029,CST-1368DR,8327,11651,15426,0.049,551
2019-08-13T02:03:31,42.805,6.029,CST-1368DR,8328,11654,15429,0.048,551
2019-08-13T02:06:32,42.805,6.029,CST-1368DR,8327,11648,15423,0.050,551
2019-08-13T02:09:34,42.805,6.029,CST-1368DR,8328,11654,15430,0.048,551
2019-08-13T02:12:36,42.805,6.029,CST-1368DR,8328,11653,15428,0.048,551
2019-08-13T02:15:37,42.805,6.029,CST-1368DR,8328,11655,15430,0.048,551
2019-08-13T02:18:39,42.805,6.029,CST-1368DR,8328,11654,15429,0.048,551
2019-08-13T02:21:41,42.805,6.029,CST-1368DR,8328,11652,15427,0.049,551
2019-08-13T02:24:42,42.805,6.029,CST-1368DR,8327,11652,15428,0.048,551
2019-08-13T02:27:44,42.805,6.029,CST-1368DR,8327,11652,15429,0.048,551
2019-08-13T02:30:46,42.805,6.029,CST-1368DR,8327,11655,15432,0.047,551
2019-08-13T02:33:48,42.805,6.029,CST-1368DR,8327,11654,15431,0.048,551
2019-08-13T02:36:49,42.805,6.029,CST-1368DR,8327,11652,15429,0.048,551
2019-08-13T02:39:51,42.805,6.029,CST-1368DR,8327,11653,15429,0.048,550
2019-08-13T02:42:53,42.805,6.029,CST-1368DR,8327,11653,15430,0.048,550
2019-08-13T02:45:54,42.805,6.029,CST-1368DR,8327,11654,15431,0.048,551
2019-08-13T02:48:56,42.805,6.029,CST-1368DR,8327,11654,15430,0.048,550
2019-08-13T02:51:57,42.805,6.029,CST-1368DR,8327,11652,15429,0.048,551
2019-08-13T02:54:59,42.805,6.029,CST-1368DR,8327,11653,15429,0.048,551
2019-08-13T02:58:01,42.805,6.029,CST-1368DR,8327,11649,15424,0.049,551
2019-08-13T03:01:02,42.805,6.029,CST-1368DR,8327,11651,15427,0.049,551
2019-08-13T03:04:04,42.805,6.029,CST-1368DR,8327,11649,15424,0.049,551
2019-08-13T03:07:06,42.805,6.029,CST-1368DR,8327,11651,15427,0.049,550
2019-08-13T03:10:07,42.805,6.029,CST-1368DR,8327,11651,15427,0.049,551
2019-08-13T03:13:09,42.805,6.029,CST-1368DR,8327,11651,15427,0.049,551
2019-08-13T03:16:11,42.805,6.029,CST-1368DR,8327,11645,15419,0.051,551
2019-08-13T03:19:12,42.805,6.029,CST-1368DR,8327,11651,15427,0.049,551
2019-08-13T03:22:14,42.805,6.029,CST-1368DR,8327,11649,15425,0.049,551
2019-08-13T03:25:15,42.805,6.029,CST-1368DR,8327,11652,15428,0.048,550
2019-08-13T03:28:17,42.805,6.029,CST-1368DR,8327,11651,15426,0.049,551
2019-08-13T03:31:19,42.805,6.029,CST-1368DR,8327,11652,15428,0.048,551
2019-08-13T03:34:20,42.805,6.029,CST-1368DR,8327,11651,15427,0.049,551
2019-08-13T03:37:22,42.805,6.029,CST-1368DR,8327,11651,15427,0.049,551
2019-08-13T03:40:24,42.805,6.029,CST-1368DR,8327,11653,15429,0.048,551
2019-08-13T03:43:25,42.805,6.029,CST-1368DR,8327,11652,15428,0.048,551
2019-08-13T03:46:27,42.805,6.029,CST-1368DR,8327,11652,15428,0.048,551
2019-08-13T03:49:28,42.805,6.029,CST-1368DR,8327,11651,15427,0.049,551
2019-08-13T03:52:30,42.805,6.029,CST-1368DR,8327,11653,15429,0.048,551
2019-08-13T03:55:32,42.805,6.029,CST-1368DR,8327,11651,15427,0.049,551
2019-08-13T03:58:33,42.805,6.029,CST-1368DR,8327,11651,15427,0.049,551
2019-08-13T04:01:35,42.805,6.029,CST-1368DR,8327,11650,15426,0.049,551
2019-08-13T04:04:37,42.805,6.029,CST-1368DR,8327,11649,15424,0.049,551
2019-08-13T04:07:38,42.805,6.029,CST-1368DR,8327,11650,15426,0.049,551
2019-08-13T04:10:40,42.805,6.029,CST-1368DR,8327,11651,15426,0.049,551
2019-08-13T04:13:42,42.805,6.029,CST-1368DR,8327,11652,15428,0.048,551
2019-08-13T04:16:43,42.805,6.029,CST-1368DR,8327,11652,15428,0.048,551
2019-08-13T04:19:45,42.805,6.029,CST-1368DR,8327,11651,15427,0.049,551
2019-08-13T04:22:47,42.805,6.029,CST-1368DR,8327,11652,15428,0.048,551
2019-08-13T04:25:48,42.805,6.029,CST-1368DR,8327,11652,15429,0.048,551
2019-08-13T04:28:50,42.805,6.029,CST-1368DR,8327,11649,15424,0.049,551
2019-08-13T04:31:51,42.805,6.029,CST-1368DR,8327,11647,15422,0.050,551
2019-08-13T04:34:53,42.805,6.029,CST-1368DR,8327,11648,15423,0.050,551
2019-08-13T04:37:55,42.805,6.029,CST-1368DR,8327,11650,15426,0.049,551
2019-08-13T04:40:56,42.805,6.029,CST-1368DR,8327,11652,15428,0.048,551
2019-08-13T04:43:58,42.805,6.029,CST-1368DR,8326,11651,15429,0.048,551
2019-08-13T04:47:00,42.805,6.029,CST-1368DR,8326,11651,15428,0.048,551
2019-08-13T04:50:01,42.805,6.029,CST-1368DR,8326,11650,15427,0.049,551
2019-08-13T04:53:03,42.805,6.029,CST-1368DR,8326,11649,15426,0.049,551
2019-08-13T04:56:04,42.805,6.029,CST-1368DR,8326,11652,15429,0.048,551
2019-08-13T04:59:06,42.805,6.029,CST-1368DR,8326,11653,15431,0.048,551
2019-08-13T05:02:08,42.805,6.029,CST-1368DR,8326,11651,15428,0.048,551
2019-08-13T05:05:09,42.805,6.029,CST-1368DR,8326,11652,15430,0.048,551
2019-08-13T05:08:11,42.805,6.029,CST-1368DR,8326,11653,15431,0.048,551
2019-08-13T05:11:13,42.805,6.029,CST-1368DR,8326,11652,15430,0.048,551
2019-08-13T05:14:14,42.805,6.029,CST-1368DR,8326,11652,15430,0.048,551
2019-08-13T05:17:16,42.805,6.029,CST-1368DR,8326,11652,15430,0.048,551
2019-08-13T05:20:17,42.805,6.029,CST-1368DR,8326,11649,15426,0.049,551
2019-08-13T05:23:19,42.805,6.029,CST-1368DR,8326,11650,15428,0.048,551
2019-08-13T05:26:21,42.805,6.029,CST-1368DR,8326,11652,15430,0.048,551
2019-08-13T05:29:22,42.805,6.029,CST-1368DR,8326,11651,15428,0.048,551
2019-08-13T05:32:24,42.805,6.029,CST-1368DR,8326,11651,15429,0.048,551
2019-08-13T05:35:26,42.805,6.029,CST-1368DR,8326,11644,15419,0.051,551
2019-08-13T05:38:27,42.805,6.029,CST-1368DR,8326,11652,15430,0.048,551
2019-08-13T05:41:29,42.805,6.029,CST-1368DR,8326,11653,15431,0.048,551
2019-08-13T05:44:31,42.805,6.029,CST-1368DR,8326,11652,15429,0.048,551
2019-08-13T05:47:32,42.805,6.029,CST-1368DR,8326,11652,15430,0.048,551
2019-08-13T05:50:34,42.805,6.029,CST-1368DR,8326,11651,15429,0.048,551
2019-08-13T05:53:36,42.805,6.029,CST-1368DR,8326,11652,15430,0.048,551
2019-08-13T05:56:37,42.805,6.029,CST-1368DR,8326,11652,15430,0.048,551
2019-08-13T05:59:39,42.805,6.029,CST-1368DR,8326,11651,15429,0.048,551
2019-08-13T06:02:41,42.805,6.029,CST-1368DR,8326,11646,15422,0.050,550
2019-08-13T06:05:42,42.805,6.029,CST-1368DR,8326,11651,15429,0.048,551
2019-08-13T06:08:44,42.805,6.029,CST-1368DR,8326,11651,15429,0.048,551
2019-08-13T06:11:45,42.805,6.029,CST-1368DR,8326,11651,15428,0.048,551
2019-08-13T06:14:47,42.805,6.029,CST-1368DR,8326,11652,15429,0.048,551
2019-08-13T06:17:49,42.805,6.029,CST-1368DR,8326,11652,15430,0.048,551
2019-08-13T06:20:50,42.805,6.029,CST-1368DR,8326,11653,15431,0.048,551
2019-08-13T06:23:52,42.805,6.029,CST-1368DR,8326,11652,15430,0.048,551
2019-08-13T06:26:54,42.805,6.029,CST-1368DR,8326,11652,15430,0.048,551
2019-08-13T06:29:55,42.805,6.029,CST-1368DR,8326,11652,15430,0.048,551
2019-08-13T06:32:57,42.805,6.029,CST-1368DR,8326,11650,15427,0.049,551
2019-08-13T06:35:59,42.805,6.029,CST-1368DR,8326,11651,15429,0.048,551
2019-08-13T06:39:00,42.805,6.029,CST-1368DR,8326,11652,15430,0.048,551
2019-08-13T06:42:02,42.805,6.029,CST-1368DR,8326,11652,15429,0.048,551
2019-08-13T06:45:04,42.805,6.029,CST-1368DR,8326,11651,15428,0.048,551
2019-08-13T06:48:05,42.805,6.029,CST-1368DR,8325,11651,15430,0.048,551
2019-08-13T06:51:07,42.805,6.029,CST-1368DR,8326,11650,15427,0.049,551
2019-08-13T06:54:09,42.805,6.029,CST-1368DR,8325,11651,15431,0.048,551
2019-08-13T06:57:10,42.805,6.029,CST-1368DR,8326,11651,15429,0.048,551
2019-08-13T07:00:12,42.805,6.029,CST-1368DR,8326,11652,15429,0.048,551
2019-08-13T07:03:13,42.805,6.029,CST-1368DR,8325,11651,15430,0.048,551
2019-08-13T07:06:15,42.805,6.029,CST-1368DR,8325,11650,15429,0.048,550
2019-08-13T07:09:17,42.805,6.029,CST-1368DR,8325,11648,15426,0.049,551
2019-08-13T07:12:18,42.805,6.029,CST-1368DR,8325,11652,15432,0.047,550
2019-08-13T07:15:20,42.805,6.029,CST-1368DR,8325,11649,15427,0.049,551
2019-08-13T07:18:22,42.805,6.029,CST-1368DR,8325,11651,15431,0.048,551
2019-08-13T07:21:23,42.805,6.029,CST-1368DR,8325,11650,15429,0.048,551
2019-08-13T07:24:25,42.805,6.029,CST-1368DR,8325,11651,15430,0.048,551
2019-08-13T07:27:27,42.805,6.029,CST-1368DR,8325,11649,15428,0.048,550
2019-08-13T07:30:28,42.805,6.029,CST-1368DR,8325,11652,15431,0.048,551
2019-08-13T07:33:30,42.805,6.029,CST-1368DR,8325,11651,15431,0.048,550
2019-08-13T07:36:32,42.805,6.029,CST-1368DR,8325,11652,15431,0.048,551
2019-08-13T07:39:33,42.805,6.029,CST-1368DR,8325,11651,15430,0.048,551
2019-08-13T07:42:35,42.805,6.029,CST-1368DR,8325,11650,15428,0.048,550
2019-08-13T07:45:36,42.805,6.029,CST-1368DR,8325,11650,15429,0.048,551
2019-08-13T07:48:38,42.805,6.029,CST-1368DR,8325,11647,15426,0.049,551
2019-08-13T07:51:40,42.805,6.029,CST-1368DR,8325,11651,15430,0.048,551
2019-08-13T07:54:41,42.805,6.029,CST-1368DR,8325,11651,15430,0.048,551
2019-08-13T07:57:44,42.805,6.029,CST-1368DR,8325,11651,15430,0.048,551
2019-08-13T08:00:45,42.805,6.029,CST-1368DR,8325,11651,15430,0.048,551
2019-08-13T08:03:47,42.805,6.029,CST-1368DR,8325,11651,15430,0.048,551
2019-08-13T08:06:49,42.805,6.029,CST-1368DR,8325,11651,15430,0.048,551
2019-08-13T08:09:50,42.805,6.029,CST-1368DR,8325,11651,15430,0.048,551
2019-08-13T08:12:52,42.805,6.029,CST-1368DR,8325,11652,15431,0.048,551
2019-08-13T08:15:53,42.805,6.029,CST-1368DR,8325,11650,15428,0.048,551
2019-08-13T08:18:55,42.805,6.029,CST-1368DR,8325,11649,15427,0.049,551
2019-08-13T08:21:57,42.805,6.029,CST-1368DR,8325,11650,15428,0.048,550
2019-08-13T08:24:58,42.805,6.029,CST-1368DR,8325,11650,15429,0.048,551
2019-08-13T08:28:00,42.805,6.029,CST-1368DR,8325,11651,15430,0.048,550
2019-08-13T08:31:02,42.805,6.029,CST-1368DR,8325,11651,15430,0.048,551
2019-08-13T08:34:03,42.805,6.029,CST-1368DR,8325,11648,15427,0.049,551
2019-08-13T08:37:05,42.805,6.029,CST-1368DR,8325,11648,15427,0.049,551
2019-08-13T08:40:07,42.805,6.029,CST-1368DR,8325,11648,15427,0.049,551
2019-08-13T08:43:08,42.805,6.029,CST-1368DR,8324,11646,15425,0.049,551
2019-08-13T08:46:10,42.805,6.029,CST-1368DR,8324,11650,15431,0.048,551
2019-08-13T08:49:12,42.805,6.029,CST-1368DR,8324,11649,15429,0.048,551
2019-08-13T08:52:13,42.805,6.029,CST-1368DR,8324,11646,15425,0.049,551
2019-08-13T08:55:15,42.805,6.029,CST-1368DR,8324,11648,15429,0.048,551
2019-08-13T08:58:16,42.805,6.029,CST-1368DR,8324,11650,15430,0.048,551
2019-08-13T09:01:18,42.805,6.029,CST-1368DR,8324,11650,15431,0.048,551
2019-08-13T09:04:20,42.805,6.029,CST-1368DR,8324,11646,15426,0.049,551
2019-08-13T09:07:21,42.805,6.029,CST-1368DR,8324,11648,15429,0.048,550
2019-08-13T09:10:23,42.805,6.029,CST-1368DR,8324,11648,15429,0.048,551
2019-08-13T09:13:25,42.805,6.029,CST-1368DR,8324,11648,15428,0.048,551
2019-08-13T09:16:27,42.805,6.029,CST-1368DR,8324,11648,15428,0.048,550
2019-08-13T09:19:28,42.805,6.029,CST-1368DR,8324,11649,15429,0.048,551
2019-08-13T09:22:30,42.805,6.029,CST-1368DR,8324,11647,15427,0.049,551
2019-08-13T09:25:31,42.805,6.029,CST-1368DR,8324,11649,15430,0.048,551
2019-08-13T09:28:33,42.805,6.029,CST-1368DR,8324,11648,15429,0.048,551
2019-08-13T09:31:35,42.805,6.029,CST-1368DR,8324,11649,15429,0.048,551
2019-08-13T09:34:36,42.805,6.029,CST-1368DR,8324,11648,15428,0.048,551
2019-08-13T09:37:38,42.805,6.029,CST-1368DR,8324,11649,15429,0.048,551
2019-08-13T09:40:40,42.805,6.029,CST-1368DR,8324,11648,15428,0.048,551
2019-08-13T09:43:41,42.805,6.029,CST-1368DR,8324,11648,15429,0.048,551
2019-08-13T09:46:43,42.805,6.029,CST-1368DR,8324,11648,15428,0.048,551
2019-08-13T09:49:45,42.805,6.029,CST-1368DR,8324,11647,15427,0.049,551
2019-08-13T09:52:46,42.805,6.029,CST-1368DR,8324,11648,15428,0.048,551
2019-08-13T09:55:48,42.805,6.029,CST-1368DR,8324,11648,15428,0.048,550
2019-08-13T09:58:49,42.805,6.029,CST-1368DR,8324,11647,15427,0.049,551
2019-08-13T10:01:51,42.805,6.029,CST-1368DR,8324,11648,15428,0.048,551
2019-08-13T10:04:53,42.805,6.029,CST-1368DR,8324,11648,15428,0.048,551
2019-08-13T10:07:54,42.805,6.029,CST-1368DR,8324,11647,15427,0.049,551
2019-08-13T10:10:56,42.805,6.029,CST-1368DR,8324,11648,15429,0.048,551
2019-08-13T10:13:58,42.805,6.029,CST-1368DR,8324,11646,15426,0.049,551
2019-08-13T10:16:59,42.805,6.029,CST-1368DR,8324,11650,15430,0.048,551
2019-08-13T10:20:01,42.805,6.029,CST-1368DR,8324,11649,15429,0.048,551
2019-08-13T10:23:03,42.805,6.029,CST-1368DR,8324,11650,15431,0.048,551
2019-08-13T10:26:04,42.805,6.029,CST-1368DR,8323,11648,15430,0.048,551
2019-08-13T10:29:06,42.805,6.029,CST-1368DR,8324,11647,15427,0.049,551
2019-08-13T10:32:08,42.805,6.029,CST-1368DR,8323,11648,15430,0.048,550
2019-08-13T10:35:09,42.805,6.029,CST-1368DR,8324,11648,15428,0.048,551
2019-08-13T10:38:11,42.805,6.029,CST-1368DR,8323,11647,15429,0.048,551
2019-08-13T10:41:13,42.805,6.029,CST-1368DR,8324,11648,15429,0.048,551
2019-08-13T10:44:14,42.805,6.029,CST-1368DR,8324,11648,15428,0.048,551
2019-08-13T10:47:16,42.805,6.029,CST-1368DR,8323,11649,15432,0.047,551
2019-08-13T10:50:17,42.805,6.029,CST-1368DR,8323,11648,15430,0.048,551
2019-08-13T10:53:19,42.805,6.029,CST-1368DR,8323,11649,15431,0.048,551
2019-08-13T10:56:21,42.805,6.029,CST-1368DR,8323,11648,15430,0.048,551
2019-08-13T10:59:22,42.805,6.029,CST-1368DR,8323,11649,15431,0.048,550
2019-08-13T11:02:24,42.805,6.029,CST-1368DR,8323,11647,15429,0.048,551
2019-08-13T11:05:26,42.805,6.029,CST-1368DR,8323,11646,15427,0.049,551
2019-08-13T11:08:28,42.805,6.029,CST-1368DR,8323,11646,15427,0.049,551
2019-08-13T11:11:29,42.805,6.029,CST-1368DR,8323,11649,15431,0.048,550
2019-08-13T11:14:31,42.805,6.029,CST-1368DR,8323,11649,15431,0.048,551
2019-08-13T11:17:33,42.805,6.029,CST-1368DR,8323,11646,15427,0.049,551
2019-08-13T11:20:34,42.805,6.029,CST-1368DR,8323,11649,15431,0.048,551
2019-08-13T11:23:36,42.805,6.029,CST-1368DR,8323,11648,15430,0.048,551
2019-08-13T11:26:37,42.805,6.029,CST-1368DR,8323,11649,15431,0.048,551
2019-08-13T11:29:39,42.805,6.029,CST-1368DR,8323,11647,15429,0.048,551
2019-08-13T11:32:41,42.805,6.029,CST-1368DR,8323,11648,15429,0.048,551
2019-08-13T11:35:42,42.805,6.029,CST-1368DR,8323,11648,15430,0.048,551
2019-08-13T11:38:44,42.805,6.029,CST-1368DR,8323,11648,15429,0.048,551
2019-08-13T11:41:46,42.805,6.029,CST-1368DR,8323,11649,15431,0.048,551
2019-08-13T11:44:47,42.805,6.029,CST-1368DR,8323,11648,15430,0.048,551
2019-08-13T11:47:49,42.805,6.029,CST-1368DR,8323,11648,15430,0.048,551
2019-08-13T11:50:51,42.805,6.029,CST-1368DR,8323,11647,15429,0.048,551
2019-08-13T11:53:52,42.805,6.029,CST-1368DR,8323,11648,15430,0.048,551
2019-08-13T11:56:54,42.805,6.029,CST-1368DR,8323,11648,15430,0.048,551
2019-08-13T11:59:56,42.805,6.029,CST-1368DR,8323,11647,15429,0.048,551
2019-08-13T12:02:57,42.805,6.029,CST-1368DR,8323,11646,15428,0.048,551
2019-08-13T12:05:59,42.805,6.029,CST-1368DR,8323,11643,15423,0.050,551
2019-08-13T12:09:00,42.805,6.029,CST-1368DR,8323,11647,15429,0.048,551
2019-08-13T12:12:02,42.805,6.029,CST-1368DR,8323,11648,15430,0.048,551
2019-08-13T12:15:04,42.805,6.029,CST-1368DR,8323,11648,15430,0.048,551
2019-08-13T12:18:05,42.805,6.029,CST-1368DR,8323,11646,15427,0.049,551
2019-08-13T12:21:07,42.805,6.029,CST-1368DR,8323,11648,15430,0.048,551
2019-08-13T12:24:09,42.805,6.029,CST-1368DR,8323,11648,15430,0.048,551
2019-08-13T12:27:10,42.805,6.029,CST-1368DR,8323,11648,15430,0.048,551
2019-08-13T12:30:12,42.805,6.029,CST-1368DR,8323,11647,15429,0.048,551
2019-08-13T12:33:14,42.805,6.029,CST-1368DR,8323,11647,15428,0.048,551
2019-08-13T12:36:15,42.805,6.029,CST-1368DR,8323,11648,15430,0.048,551
2019-08-13T12:39:17,42.805,6.029,CST-1368DR,8323,11647,15429,0.048,551
2019-08-13T12:42:19,42.805,6.029,CST-1368DR,8323,11647,15428,0.048,551
2019-08-13T12:45:20,42.805,6.029,CST-1368DR,8323,11648,15430,0.048,550
2019-08-13T12:48:22,42.805,6.029,CST-1368DR,8323,11647,15428,0.048,551
2019-08-13T12:51:24,42.805,6.029,CST-1368DR,8323,11648,15430,0.048,551
2019-08-13T12:54:25,42.805,6.029,CST-1368DR,8322,11643,15424,0.049,551
2019-08-13T12:57:27,42.805,6.029,CST-1368DR,8323,11647,15429,0.048,551
2019-08-13T13:00:29,42.805,6.029,CST-1368DR,8322,11645,15427,0.049,551
2019-08-13T13:03:30,42.805,6.029,CST-1368DR,8322,11646,15429,0.048,551
2019-08-13T13:06:32,42.805,6.029,CST-1368DR,8323,11645,15426,0.049,551
2019-08-13T13:09:34,42.805,6.029,CST-1368DR,8322,11648,15431,0.048,551
2019-08-13T13:12:35,42.805,6.029,CST-1368DR,8322,11645,15427,0.049,551
2019-08-13T13:15:37,42.805,6.029,CST-1368DR,8322,11649,15432,0.047,551
2019-08-13T13:18:39,42.805,6.029,CST-1368DR,8322,11646,15429,0.048,551
2019-08-13T13:21:40,42.805,6.029,CST-1368DR,8322,11648,15432,0.047,551
2019-08-13T13:24:42,42.805,6.029,CST-1368DR,8322,11645,15428,0.048,551
2019-08-13T13:27:44,42.805,6.029,CST-1368DR,8322,11647,15431,0.048,551
2019-08-13T13:30:46,42.805,6.029,CST-1368DR,8322,11648,15432,0.047,551
2019-08-13T13:33:48,42.805,6.029,CST-1368DR,8322,11648,15431,0.048,551
2019-08-13T13:36:49,42.805,6.029,CST-1368DR,8322,11647,15430,0.048,551
2019-08-13T13:39:51,42.805,6.029,CST-1368DR,8322,11647,15430,0.048,551
2019-08-13T13:42:53,42.805,6.029,CST-1368DR,8322,11645,15427,0.049,551
2019-08-13T13:45:54,42.805,6.029,CST-1368DR,8322,11645,15428,0.048,551
2019-08-13T13:48:56,42.805,6.029,CST-1368DR,8322,11646,15429,0.048,551
2019-08-13T13:51:58,42.805,6.029,CST-1368DR,8322,11647,15430,0.048,551
2019-08-13T13:54:59,42.805,6.029,CST-1368DR,8322,11648,15432,0.047,551
2019-08-13T13:58:01,42.805,6.029,CST-1368DR,8322,11646,15429,0.048,551
2019-08-13T14:01:03,42.805,6.029,CST-1368DR,8322,11646,15429,0.048,551
2019-08-13T14:04:04,42.805,6.029,CST-1368DR,8322,11644,15426,0.049,551
2019-08-13T14:07:06,42.805,6.029,CST-1368DR,8322,11647,15430,0.048,551
2019-08-13T14:10:08,42.805,6.029,CST-1368DR,8322,11647,15430,0.048,551
2019-08-13T14:13:09,42.805,6.029,CST-1368DR,8322,11646,15429,0.048,551
2019-08-13T14:16:11,42.805,6.029,CST-1368DR,8322,11646,15428,0.048,551
2019-08-13T14:19:13,42.805,6.029,CST-1368DR,8322,11645,15427,0.049,550
2019-08-13T14:22:14,42.805,6.029,CST-1368DR,8322,11647,15430,0.048,551
2019-08-13T14:25:16,42.805,6.029,CST-1368DR,8322,11647,15431,0.048,551
2019-08-13T14:28:17,42.805,6.029,CST-1368DR,8322,11647,15430,0.048,551
2019-08-13T14:31:19,42.805,6.029,CST-1368DR,8322,11646,15429,0.048,551
2019-08-13T14:34:21,42.805,6.029,CST-1368DR,8322,11646,15429,0.048,551
2019-08-13T14:37:22,42.805,6.029,CST-1368DR,8322,11645,15427,0.049,551
2019-08-13T14:40:24,42.805,6.029,CST-1368DR,8322,11646,15429,0.048,551
2019-08-13T14:43:26,42.805,6.029,CST-1368DR,8322,11647,15430,0.048,551
2019-08-13T14:46:27,42.805,6.029,CST-1368DR,8322,11648,15432,0.047,551
2019-08-13T14:49:29,42.805,6.029,CST-1368DR,8322,11647,15430,0.048,551
2019-08-13T14:52:30,42.805,6.029,CST-1368DR,8322,11645,15427,0.049,551
2019-08-13T14:55:32,42.805,6.029,CST-1368DR,8322,11643,15425,0.049,551
2019-08-13T14:58:34,42.805,6.029,CST-1368DR,8322,11644,15427,0.049,551
2019-08-13T15:01:35,42.805,6.029,CST-1368DR,8322,11645,15428,0.048,551
2019-08-13T15:04:37,42.805,6.029,CST-1368DR,8322,11646,15429,0.048,550
2019-08-13T15:07:39,42.805,6.029,CST-1368DR,8322,11645,15428,0.048,551
2019-08-13T15:10:40,42.805,6.029,CST-1368DR,8322,11645,15427,0.049,551
2019-08-13T15:13:42,42.805,6.029,CST-1368DR,8322,11646,15429,0.048,551
2019-08-13T15:16:44,42.805,6.029,CST-1368DR,8322,11642,15424,0.049,551
2019-08-13T15:19:45,42.805,6.029,CST-1368DR,8322,11642,15423,0.050,551
2019-08-13T15:22:47,42.805,6.029,CST-1368DR,8321,11645,15429,0.048,550
2019-08-13T15:25:48,42.805,6.029,CST-1368DR,8322,11644,15426,0.049,551
2019-08-13T15:28:50,42.805,6.029,CST-1368DR,8322,11644,15426,0.049,551
2019-08-13T15:31:52,42.805,6.029,CST-1368DR,8321,11643,15427,0.049,551
2019-08-13T15:34:53,42.805,6.029,CST-1368DR,8321,11642,15426,0.049,551
2019-08-13T15:37:55,42.805,6.029,CST-1368DR,8321,11644,15428,0.048,551
2019-08-13T15:40:57,42.805,6.029,CST-1368DR,8321,11643,15426,0.049,550
2019-08-13T15:43:58,42.805,6.029,CST-1368DR,8321,11643,15426,0.049,551
2019-08-13T15:47:00,42.805,6.029,CST-1368DR,8321,11645,15429,0.048,551
2019-08-13T15:50:02,42.805,6.029,CST-1368DR,8321,11642,15425,0.049,551
2019-08-13T15:53:04,42.805,6.029,CST-1368DR,8321,11645,15430,0.048,551
2019-08-13T15:56:05,42.805,6.029,CST-1368DR,8321,11646,15430,0.048,551
2019-08-13T15:59:07,42.805,6.029,CST-1368DR,8321,11647,15432,0.047,550
2019-08-13T16:02:08,42.805,6.029,CST-1368DR,8321,11644,15428,0.048,551
2019-08-13T16:05:10,42.805,6.029,CST-1368DR,8321,11644,15428,0.048,551
2019-08-13T16:08:12,42.805,6.029,CST-1368DR,8321,11644,15427,0.049,551
2019-08-13T16:11:13,42.805,6.029,CST-1368DR,8321,11645,15429,0.048,551
2019-08-13T16:14:15,42.805,6.029,CST-1368DR,8321,11640,15423,0.050,551
2019-08-13T16:17:17,42.805,6.029,CST-1368DR,8321,11644,15428,0.048,551
2019-08-13T16:20:18,42.805,6.029,CST-1368DR,8321,11645,15429,0.048,551
2019-08-13T16:23:20,42.805,6.029,CST-1368DR,8321,11637,15418,0.051,551
2019-08-13T16:26:22,42.805,6.029,CST-1368DR,8321,11646,15430,0.048,551
2019-08-13T16:29:23,42.805,6.029,CST-1368DR,8321,11645,15429,0.048,551
2019-08-13T16:32:25,42.805,6.029,CST-1368DR,8321,11644,15428,0.048,551
2019-08-13T16:35:26,42.805,6.029,CST-1368DR,8321,11645,15430,0.048,551
2019-08-13T16:38:28,42.805,6.029,CST-1368DR,8321,11632,15411,0.053,551